This is the latest recevied weather packets stored in our database for station/object IA5ITY-13. If no packets are shown the sender has not sent any weather packets the latest 10 day(s).
| Time | Temp. | Humidity | Pressure | Rain* | Wind** | Luminosity | Snow |
|---|---|---|---|---|---|---|---|
| 1777800309 | 17.78° C | 60% | 1019.9 hPa | 0 mm | - | - | - |
| 1777800012 | 18.89° C | 60% | 1019.8 hPa | 0 mm | - | - | - |
| 1777799712 | 20° C | 54% | 1019.7 hPa | 0 mm | - | - | - |
| 1777799411 | 21.11° C | 57% | 1019.7 hPa | 0 mm | - | - | - |
| 1777799108 | 18.89° C | 64% | 1019.7 hPa | 0 mm | - | - | - |
| 1777798829 | 18.89° C | 62% | 1019.7 hPa | 0 mm | - | - | - |
| 1777798509 | 20° C | 64% | 1019.7 hPa | 0 mm | - | - | - |
| 1777798212 | 18.89° C | 67% | 1019.8 hPa | 0 mm | - | - | - |
| 1777797612 | 17.78° C | 68% | 1019.7 hPa | 0 mm | - | - | - |
| 1777797309 | 17.78° C | 68% | 1019.7 hPa | 0 mm | - | - | - |
| 1777797022 | 17.78° C | 68% | 1019.8 hPa | 0 mm | - | - | - |
| 1777796709 | 18.89° C | 66% | 1019.8 hPa | 0 mm | - | - | - |
| 1777796413 | 17.78° C | 68% | 1019.7 hPa | 0 mm | - | - | - |
| 1777796112 | 17.78° C | 67% | 1019.5 hPa | 0 mm | - | - | - |
| 1777795812 | 17.78° C | 66% | 1019.4 hPa | 0 mm | - | - | - |
| 1777795509 | 17.78° C | 68% | 1019.4 hPa | 0 mm | - | - | - |
| 1777795229 | 17.78° C | 68% | 1019.3 hPa | 0 mm | - | - | - |
| 1777794908 | 17.78° C | 69% | 1019.3 hPa | 0 mm | - | - | - |
| 1777794612 | 17.78° C | 66% | 1019.3 hPa | 0 mm | - | - | - |
| 1777794311 | 17.78° C | 65% | 1019.2 hPa | 0 mm | - | - | - |
| 1777794012 | 18.89° C | 60% | 1019.1 hPa | 0 mm | - | - | - |
| 1777793709 | 18.89° C | 54% | 1019.1 hPa | 0 mm | - | - | - |
| 1777793422 | 17.78° C | 64% | 1019.1 hPa | 0 mm | - | - | - |
| 1777793108 | 17.78° C | 62% | 1019.1 hPa | 0 mm | - | - | - |
| 1777792812 | 17.78° C | 63% | 1019.2 hPa | 0 mm | - | - | - |
* Rain latest hour (hover to see other rain measurements)
** Current wind speed in m/s (hover to see current wind gust speed)